(°C)
-13°
-13°
-13°
-13°
-13°
-13°
-13°
(°C)
-20°
-20°
-20°
-20°
-20°
-20°
-20°
E
ENE
E
ENE
ENE
ENE
ENE
(km/h)
15-23
16-24
17-25
17-25
17-26
18-27
18-27
(mm)
0
0
0
0
0
0
0
(%)
0
0
0
0
0
0
0

Elevazione del sole

/ -56°
sun-icon
UV 1
09:20
18:11
Gibbosa calante (256°)
00:16
12:10

METAR per 51.15°N 51.54°E (UARR)

Ora Condizioni Temperatura/
Punto di rugiada
Vento Visibilità Meteo Nuvole Pressione Cambiamento Grezzo
VFR °C / °C 70º 10kt >10km - Clouds and Visibility OK 1032 No Significant change UARR 232100Z 07005MPS CAVOK M13/M16 Q1032 NOSIG RMK QFE770/1027
VFR °C / °C 70º 10kt >10km - Clouds and Visibility OK 1032 No Significant change UARR 232000Z 07005MPS CAVOK M13/M16 Q1032 NOSIG RMK QFE770/1027
VFR °C / °C 80º 12kt >10km - Clouds and Visibility OK 1031 No Significant change UARR 231900Z 08006MPS CAVOK M12/M14 Q1031 NOSIG RMK QFE770/1027
VFR °C / °C 70º 12kt >10km - Clouds and Visibility OK 1031 No Significant change UARR 231800Z 07006MPS CAVOK M13/M15 Q1031 NOSIG RMK QFE770/1027
VFR °C / °C 70º 14kt >10km - Clouds and Visibility OK 1031 No Significant change UARR 231730Z 07007MPS CAVOK M12/M15 Q1031 NOSIG RMK QFE770/1026
VFR °C / °C 80º 16kt >10km - Clouds and Visibility OK 1031 No Significant change UARR 231700Z 08008MPS CAVOK M12/M15 Q1031 NOSIG RMK QFE769/1026
VFR °C / °C 70º 14kt >10km - Clouds and Visibility OK 1031 No Significant change UARR 231630Z 07007MPS CAVOK M12/M14 Q1031 NOSIG RMK QFE770/1026
VFR °C / °C 70º 14kt >10km - Clouds and Visibility OK 1031 No Significant change UARR 231600Z 07007MPS CAVOK M12/M14 Q1031 NOSIG RMK QFE770/1026
VFR °C / °C 70º 14kt >10km - Clouds and Visibility OK 1031 No Significant change UARR 231530Z 07007MPS CAVOK M12/M14 Q1031 NOSIG RMK QFE770/1026
VFR °C / °C 60º 12kt >10km low Drifting Snow 3.00mm precipitation Vertical Visibility of 0ft. 1031 No Significant change UARR 231500Z 06006MPS 9999 DRSN NSC M12/M14 Q1031 NOSIG RMK QFE770/1027
VFR °C / °C 60º 16kt >10km low Drifting Snow 3.00mm precipitation Vertical Visibility of 0ft. 1031 No Significant change UARR 231430Z 06008MPS 9999 DRSN NSC M12/M14 Q1031 NOSIG RMK QFE770/1026
VFR °C / °C 60º 12kt >10km - Clouds and Visibility OK 1031 No Significant change UARR 231400Z 06006MPS CAVOK M12/M14 Q1031 NOSIG RMK QFE770/1026
VFR °C / °C 60º 10kt >10km - Clouds and Visibility OK 1031 No Significant change UARR 231330Z 06005MPS CAVOK M12/M14 Q1031 NOSIG RMK QFE770/1026
VFR °C / °C 70º 10kt >10km - Clouds and Visibility OK 1031 No Significant change UARR 231300Z 07005MPS CAVOK M12/M14 Q1031 NOSIG RMK QFE770/1026
VFR °C / °C 70º 12kt >10km - Clouds and Visibility OK 1030 No Significant change UARR 231230Z 07006MPS CAVOK M12/M14 Q1030 NOSIG RMK QFE769/1026
VFR °C / °C 70º 10kt >10km - Clouds and Visibility OK 1030 No Significant change UARR 231200Z 07005MPS CAVOK M11/M13 Q1030 NOSIG RMK QFE769/1026
VFR °C / °C 90º 10kt >10km - Clouds and Visibility OK 1030 No Significant change UARR 231130Z 09005MPS CAVOK M11/M13 Q1030 NOSIG RMK QFE769/1026
VFR °C / °C 90º 10kt >10km - Clouds and Visibility OK 1030 No Significant change UARR 231100Z 09005MPS CAVOK M10/M13 Q1030 NOSIG RMK QFE769/1026
VFR °C / °C 100º 10kt >10km - Clouds and Visibility OK 1030 No Significant change UARR 231030Z 10005MPS CAVOK M10/M13 Q1030 NOSIG RMK QFE769/1025
VFR °C / °C 110º 10kt >10km - Clouds and Visibility OK 1030 No Significant change UARR 231000Z 11005MPS CAVOK M10/M13 Q1030 NOSIG RMK QFE769/1025
VFR °C / °C 100º 10kt >10km - Clouds and Visibility OK 1030 No Significant change UARR 230930Z 10005MPS CAVOK M10/M12 Q1030 NOSIG RMK QFE769/1025
VFR °C / °C 100º 8kt >10km - Clouds and Visibility OK 1030 No Significant change UARR 230900Z 10004MPS CAVOK M10/M13 Q1030 NOSIG RMK QFE769/1025
VFR °C / °C 100º 8kt >10km - Clouds and Visibility OK 1030 Temporary: Broken Clouds 400ft. RMK QFE769/1025 UARR 230830Z 10004MPS CAVOK M11/M13 Q1030 TEMPO BKN004 RMK QFE769/1025
VFR °C / °C 110º 10kt >10km - Few Clouds 600ft 1030 Temporary: Broken Clouds 400ft. RMK QBB200 QFE769/1025 UARR 230800Z 11005MPS 9999 FEW006 M11/M13 Q1030 TEMPO BKN004 RMK QBB200 QFE769/1025

VFR

°C / °C

[Più]
Vento 70º 10kt
Visibilità >10km
Meteo -
Nuvole Clouds and Visibility OK
Pressione 1032
Cambiamento No Significant change
Grezzo UARR 232100Z 07005MPS CAVOK M13/M16 Q1032 NOSIG RMK QFE770/1027

VFR

°C / °C

[Più]
Vento 70º 10kt
Visibilità >10km
Meteo -
Nuvole Clouds and Visibility OK
Pressione 1032
Cambiamento No Significant change
Grezzo UARR 232000Z 07005MPS CAVOK M13/M16 Q1032 NOSIG RMK QFE770/1027

VFR

°C / °C

[Più]
Vento 80º 12kt
Visibilità >10km
Meteo -
Nuvole Clouds and Visibility OK
Pressione 1031
Cambiamento No Significant change
Grezzo UARR 231900Z 08006MPS CAVOK M12/M14 Q1031 NOSIG RMK QFE770/1027

VFR

°C / °C

[Più]
Vento 70º 12kt
Visibilità >10km
Meteo -
Nuvole Clouds and Visibility OK
Pressione 1031
Cambiamento No Significant change
Grezzo UARR 231800Z 07006MPS CAVOK M13/M15 Q1031 NOSIG RMK QFE770/1027

VFR

°C / °C

[Più]
Vento 70º 14kt
Visibilità >10km
Meteo -
Nuvole Clouds and Visibility OK
Pressione 1031
Cambiamento No Significant change
Grezzo UARR 231730Z 07007MPS CAVOK M12/M15 Q1031 NOSIG RMK QFE770/1026

VFR

°C / °C

[Più]
Vento 80º 16kt
Visibilità >10km
Meteo -
Nuvole Clouds and Visibility OK
Pressione 1031
Cambiamento No Significant change
Grezzo UARR 231700Z 08008MPS CAVOK M12/M15 Q1031 NOSIG RMK QFE769/1026

VFR

°C / °C

[Più]
Vento 70º 14kt
Visibilità >10km
Meteo -
Nuvole Clouds and Visibility OK
Pressione 1031
Cambiamento No Significant change
Grezzo UARR 231630Z 07007MPS CAVOK M12/M14 Q1031 NOSIG RMK QFE770/1026

VFR

°C / °C

[Più]
Vento 70º 14kt
Visibilità >10km
Meteo -
Nuvole Clouds and Visibility OK
Pressione 1031
Cambiamento No Significant change
Grezzo UARR 231600Z 07007MPS CAVOK M12/M14 Q1031 NOSIG RMK QFE770/1026

VFR

°C / °C

[Più]
Vento 70º 14kt
Visibilità >10km
Meteo -
Nuvole Clouds and Visibility OK
Pressione 1031
Cambiamento No Significant change
Grezzo UARR 231530Z 07007MPS CAVOK M12/M14 Q1031 NOSIG RMK QFE770/1026

VFR

°C / °C

[Più]
Vento 60º 12kt
Visibilità >10km
Meteo low Drifting Snow 3.00mm precipitation
Nuvole Vertical Visibility of 0ft.
Pressione 1031
Cambiamento No Significant change
Grezzo UARR 231500Z 06006MPS 9999 DRSN NSC M12/M14 Q1031 NOSIG RMK QFE770/1027

VFR

°C / °C

[Più]
Vento 60º 16kt
Visibilità >10km
Meteo low Drifting Snow 3.00mm precipitation
Nuvole Vertical Visibility of 0ft.
Pressione 1031
Cambiamento No Significant change
Grezzo UARR 231430Z 06008MPS 9999 DRSN NSC M12/M14 Q1031 NOSIG RMK QFE770/1026

VFR

°C / °C

[Più]
Vento 60º 12kt
Visibilità >10km
Meteo -
Nuvole Clouds and Visibility OK
Pressione 1031
Cambiamento No Significant change
Grezzo UARR 231400Z 06006MPS CAVOK M12/M14 Q1031 NOSIG RMK QFE770/1026

VFR

°C / °C

[Più]
Vento 60º 10kt
Visibilità >10km
Meteo -
Nuvole Clouds and Visibility OK
Pressione 1031
Cambiamento No Significant change
Grezzo UARR 231330Z 06005MPS CAVOK M12/M14 Q1031 NOSIG RMK QFE770/1026

VFR

°C / °C

[Più]
Vento 70º 10kt
Visibilità >10km
Meteo -
Nuvole Clouds and Visibility OK
Pressione 1031
Cambiamento No Significant change
Grezzo UARR 231300Z 07005MPS CAVOK M12/M14 Q1031 NOSIG RMK QFE770/1026

VFR

°C / °C

[Più]
Vento 70º 12kt
Visibilità >10km
Meteo -
Nuvole Clouds and Visibility OK
Pressione 1030
Cambiamento No Significant change
Grezzo UARR 231230Z 07006MPS CAVOK M12/M14 Q1030 NOSIG RMK QFE769/1026

VFR

°C / °C

[Più]
Vento 70º 10kt
Visibilità >10km
Meteo -
Nuvole Clouds and Visibility OK
Pressione 1030
Cambiamento No Significant change
Grezzo UARR 231200Z 07005MPS CAVOK M11/M13 Q1030 NOSIG RMK QFE769/1026

VFR

°C / °C

[Più]
Vento 90º 10kt
Visibilità >10km
Meteo -
Nuvole Clouds and Visibility OK
Pressione 1030
Cambiamento No Significant change
Grezzo UARR 231130Z 09005MPS CAVOK M11/M13 Q1030 NOSIG RMK QFE769/1026

VFR

°C / °C

[Più]
Vento 90º 10kt
Visibilità >10km
Meteo -
Nuvole Clouds and Visibility OK
Pressione 1030
Cambiamento No Significant change
Grezzo UARR 231100Z 09005MPS CAVOK M10/M13 Q1030 NOSIG RMK QFE769/1026

VFR

°C / °C

[Più]
Vento 100º 10kt
Visibilità >10km
Meteo -
Nuvole Clouds and Visibility OK
Pressione 1030
Cambiamento No Significant change
Grezzo UARR 231030Z 10005MPS CAVOK M10/M13 Q1030 NOSIG RMK QFE769/1025

VFR

°C / °C

[Più]
Vento 110º 10kt
Visibilità >10km
Meteo -
Nuvole Clouds and Visibility OK
Pressione 1030
Cambiamento No Significant change
Grezzo UARR 231000Z 11005MPS CAVOK M10/M13 Q1030 NOSIG RMK QFE769/1025

VFR

°C / °C

[Più]
Vento 100º 10kt
Visibilità >10km
Meteo -
Nuvole Clouds and Visibility OK
Pressione 1030
Cambiamento No Significant change
Grezzo UARR 230930Z 10005MPS CAVOK M10/M12 Q1030 NOSIG RMK QFE769/1025

VFR

°C / °C

[Più]
Vento 100º 8kt
Visibilità >10km
Meteo -
Nuvole Clouds and Visibility OK
Pressione 1030
Cambiamento No Significant change
Grezzo UARR 230900Z 10004MPS CAVOK M10/M13 Q1030 NOSIG RMK QFE769/1025

VFR

°C / °C

[Più]
Vento 100º 8kt
Visibilità >10km
Meteo -
Nuvole Clouds and Visibility OK
Pressione 1030
Cambiamento Temporary: Broken Clouds 400ft. RMK QFE769/1025
Grezzo UARR 230830Z 10004MPS CAVOK M11/M13 Q1030 TEMPO BKN004 RMK QFE769/1025

VFR

°C / °C

[Più]
Vento 110º 10kt
Visibilità >10km
Meteo -
Nuvole Few Clouds 600ft
Pressione 1030
Cambiamento Temporary: Broken Clouds 400ft. RMK QBB200 QFE769/1025
Grezzo UARR 230800Z 11005MPS 9999 FEW006 M11/M13 Q1030 TEMPO BKN004 RMK QBB200 QFE769/1025

TAF per 51.15°N 51.54°E (UARR)

From till


From till Wind 90º 12kt. Visibility 10km or more. Nil Significant Cloud.
Temporarly from till Visibility 3100m. Mist . Broken Clouds 1100ft.

Grezzo: TAF UARR 232001Z 2321/2406 09006MPS CAVOK TEMPO 2321/2403 3100 BR BKN011

Radar e nowcasting per 51.15°N 51.54°E

Pioviggine
Lieve
Moderato
Forte
Molto forte
Grandine

Il segnaposto è situato a 51.15°N 51.54°E. Questa animazione mostra il radar delle precipitazioni per l'ultima ora, nonché una previsione 1h. Una pioviggine o una leggera caduta di neve potrebbero essere invisibili per il radar. L'intensità delle precipitazioni è codificata a colori, dal blu chiaro all'arancione.

Tempo in atto per 51.15°N 51.54°E: immagine satellitare e pioggia

Il segnaposto è situato a 51.15°N 51.54°E. [Più]

L'immagine satellitare in tempo reale combina la luce visibile durante il giorno con la radiazione infrarossa durante la notte. Di notte l'immagine non è scura poiché i raggi infrarossi possono rilevare differenze di temperatura. Purtroppo, le nuvole basse e la nebbia sono difficili da distinguere dalla temperatura del suolo e possono pertanto essere quasi invisibili durante la notte. Le immagini satellitari Meteosat per l'Europa vengono aggiornate in tempo reale ogni 5 minuti. Le immagini GOES-16 / GOES-17 (Nord e Sud America) e Himawari (Asia) vengono aggiornate ogni 10 minuti.

Copyright 2022 EUMETSAT / meteoblue. / Copyright 2022 meteoblue